Regional Weather Roundup
Issued by NWS Jackson, KY

Home | Current Version | Previous Version | Graphics & Text | Print | Product List | Glossary On
Versions: 1 2 3 4 5 6 7 8 9 10 11 12 13 14 15 16 17 18 19 20 21 22 23 24 25 26 27 28 29 30 31 32 33 34 35 36 37 38 39 40 41 42 43 44 45 46 47 48 49 50
000
ASUS43 KJKL 302310
RWRJKL

EAST KENTUCKY HOURLY WEATHER ROUNDUP
NATIONAL WEATHER SERVICE JACKSON KY
700 PM EDT SAT AUG 30 2014

NOTE: "FAIR" INDICATES FEW OR NO CLOUDS BELOW 12,000 FEET WITH
NO SIGNIFICANT WEATHER AND/OR OBSTRUCTIONS TO VISIBILITY.

* THESE REPORTS ARE NOT UNDER NWS QUALITY CONTROL AND MAY NOT
  REPORT WEATHER SUCH AS PRECIPITATION AND FOG.

KYZ079-080-083-085-087-088-110-112-115-119-120-310000
...EASTERN KENTUCKY...

CITY           SKY/WX    TMP DP  RH WIND       PRES   REMARKS
JACKSON        PTSUNNY   82  68  62 CALM      30.09R
LONDON         MOSUNNY   84  67  56 CALM      30.08S
SOMERSET*      CLOUDY    82  66  57 CALM      30.07S
MONTICELLO*    PTSUNNY   84  73  69 SE5       30.07S HX  90
WILLIAMSBURG*  MOSUNNY   82  68  61 SE5       30.08R
MIDDLESBORO*   DRIZZLE   74  71  89 CALM      30.10R
HARLAN APT*    MOCLDY    81  68  65 MISG      30.10F
HAZARD APT*    CLOUDY    82  68  61 SW5       30.09R
BLACK MTN*       N/A     72  66  83 S2          N/A
PIKEVILLE APT* MOSUNNY   82  72  69 CALM      30.10R
BIG SANDY*     MOCLDY    85  69  60 SW3       30.08S
MOREHEAD APT*  MOCLDY    82  68  61 S6        30.07S
$$

KYZ035-036-041-042-044-050-067-078-099-310000
...CENTRAL KENTUCKY...

CITY           SKY/WX    TMP DP  RH WIND       PRES   REMARKS
MT STERLING*   CLOUDY    82  72  69 SW5       30.07S
FLEMING/MASON* CLOUDY    74  70  85 CALM      30.06R
DANVILLE*      PTSUNNY   81  68  65 CALM      30.07S
RICHMOND*      PTSUNNY   82  68  61 CALM      30.06R
LEXINGTON      CLOUDY    83  70  64 SW5       30.05S
FRANKFORT      CLOUDY    77  68  73 NW6       30.04R
$$

KYZ091>093-OHZ055-061-077-WVZ005-015-034-035-042-310000
...SOUTHERN OHIO/WEST VIRGINIA...

CITY           SKY/WX    TMP DP  RH WIND       PRES   REMARKS
COVINGTON      LGT RAIN  74  70  87 S8        30.04S FOG
COLUMBUS       PTSUNNY   87  66  49 SW10      29.99S
DAYTON         CLOUDY    81  69  67 SW7       30.01S
WILMINGTON     LGT RAIN  74  70  87 SW7       30.03R FOG
HUNTINGTON     PTSUNNY   82  69  64 S5        30.04R
CHARLESTON     MOSUNNY   87  66  49 SW8       30.05S
PINEVILLE*     MOSUNNY   78  73  85 MISG      30.17R
BECKLEY        SUNNY     80  62  54 S5        30.17S
BLUEFIELD      SUNNY     79  61  53 VRB6      30.21S
$$

VAZ002-007-008-TNZ017-027-036-066-071-310000
...SOUTHWEST VIRGINIA/EAST TENNESSEE...

CITY           SKY/WX    TMP DP  RH WIND       PRES   REMARKS
WISE*          PTSUNNY   79  63  57 CALM      30.19S
JONESVILLE*      N/A     84  68  58 CALM      30.12S
ABINGDON*      MOSUNNY   83  66  56 S3        30.15S
BRISTOL        CLOUDY    84  64  50 S3        30.11S
KNOXVILLE      PTSUNNY   79  73  82 NE3       30.06F
OAK RIDGE      PTSUNNY   80  73  79 CALM      30.09R
CROSSVILLE     CLOUDY    80  68  66 CALM      30.12R
NASHVILLE      CLOUDY    77  71  82 NE6       30.04R
$$

...KEY TO REMARKS...
VSB - VISIBILITY IN MILES
WCI - WIND CHILL INDEX
HX  - HEAT INDEX

$$



USA.gov is the U.S. government's official web portal to all federal, state and local government web resources and services.